Helicity
94 69 63 48 58 105 152 155 226 260 195 131 208 153 200 219 209 214 173 144 182 184 163 134 136 116 121 93 77 50 54 56 59 75 81 99 113 75
79 85 81 73 86 103 166 156 267 234 234 229 149 208 170 217 200 215 198 166 156 185 196 194 119 136 155 131 107 87 72 68 64 69 85 95 114 134
124 96 89 69 76 90 95 124 215 175 209 163 199 158 153 175 167 173 183 191 177 160 180 199 179 159 144 144 146 120 99 89 74 64 72 85 100 117
156 160 131 92 89 115 111 84 139 309 207 129 204 217 175 165 170 175 168 190 178 141 156 189 175 172 150 165 200 138 137 122 108 94 100 101 87 99
139 152 156 150 111 86 110 121 89 189 290 226 221 408 259 218 105 145 148 168 189 165 136 167 208 211 187 177 175 148 168 147 138 133 128 97 102 107
98 126 142 151 141 122 99 125 165 33 118 300 274 326 191 254 225 210 199 192 201 215 225 193 197 181 178 178 166 174 186 180 159 152 162 150 136 131
75 88 102 127 151 146 123 101 157 119 28 166 178 247 295 315 215 250 203 241 220 238 246 260 279 259 228 232 187 221 232 186 179 183 176 142 138 160
37 70 87 120 131 149 154 152 154 142 111 153 213 151 264 356 419 347 306 277 296 277 271 249 274 261 293 301 210 219 239 245 207 228 198 160 161 170
50 17 46 75 106 94 117 162 146 130 111 102 153 257 168 324 355 412 215 281 286 257 288 315 319 293 288 269 216 217 264 225 209 214 224 192 170 159
44 53 17 39 81 80 78 104 132 96 106 92 135 -24 189 250 321 373 326 289 279 324 287 332 332 296 278 253 206 213 221 188 191 178 216 201 168 161
37 42 55 12 37 91 89 106 96 103 97 191 79 18 49 171 211 293 322 330 324 386 371 337 311 334 307 227 224 174 172 160 168 158 178 176 173 169
42 38 44 59 53 51 86 88 106 70 74 74 174 98 77 98 179 207 345 382 366 309 420 383 384 417 348 328 254 229 193 168 187 166 154 166 197 261
33 43 40 47 76 70 64 72 110 63 44 73 96 168 115 28 117 242 331 338 285 353 348 387 444 559 456 347 403 342 260 258 261 230 188 210 234 254
42 41 38 44 71 96 80 84 91 92 70 55 103 90 225 103 72 192 243 337 322 298 386 337 484 525 490 439 389 388 423 354 353 349 338 282 239 220
34 7 9 28 57 72 96 69 93 98 113 115 81 131 247 276 -18 140 217 313 418 394 405 351 444 362 411 411 458 445 448 376 416 425 390 392 351 337
-0 8 -3 55 75 57 59 54 48 93 128 146 121 110 204 347 140 254 369 466 485 605 643 422 411 415 365 337 388 527 474 481 442 437 418 536 411 380
-9 18 18 64 107 89 80 72 69 101 143 155 162 104 206 278 355 288 367 372 404 491 685 694 568 484 481 400 443 445 650 550 424 563 601 552 449 377
81 110 112 81 82 94 111 101 114 107 150 165 179 161 208 300 370 389 344 316 361 385 439 728 683 621 509 469 493 481 583 550 489 475 578 540 536 501
246 263 167 113 55 133 236 184 148 162 162 179 176 203 240 298 400 388 330 386 367 373 469 608 626 543 478 374 484 667 548 593 576 577 540 638 633 573
224 261 208 126 43 58 173 180 185 163 173 169 196 174 252 306 297 389 355 365 365 454 559 568 479 502 435 483 620 566 588 640 687 732 812 653 595 500
213 277 273 214 107 121 111 163 149 172 160 156 185 190 251 296 384 489 491 437 512 659 519 488 395 449 632 734 645 697 754 774 689 829 778 727 673 536
251 269 283 316 254 131 185 155 127 179 186 178 151 207 219 284 331 370 341 389 431 468 438 429 503 633 702 561 707 936 979 960 765 664 632 571 540 543
287 236 251 313 305 263 158 166 294 223 183 167 135 194 211 275 297 315 358 445 435 459 501 551 592 567 567 702 909 1041 1011 992 1097 1139 973 510 401 386
Wind_Speed
107 105 105 102 99 99 98 91 89 88 88 74 70 68 68 67 69 61 60 61 58 56 53 50 46 40 36 32 31 29 27 26 23 21 19 18 19 18
108 109 107 105 103 101 100 101 88 91 90 77 73 68 65 66 68 69 68 63 63 61 57 54 50 47 43 39 36 34 32 29 28 26 25 25 23 24
115 114 114 108 111 108 104 103 108 95 98 96 78 69 67 70 69 69 71 72 69 65 62 58 55 53 49 45 42 40 38 35 32 30 29 28 27 28
119 118 118 110 113 110 108 108 98 96 99 101 85 78 78 73 71 69 71 73 73 68 65 62 59 57 55 53 49 45 44 41 39 37 36 33 31 31
118 120 121 116 117 113 112 113 109 103 104 100 97 77 79 77 77 70 73 75 72 73 66 65 65 65 62 59 55 51 47 45 45 43 40 36 35 35
120 119 120 121 121 117 115 115 110 107 106 108 97 87 75 69 77 76 73 72 75 72 70 71 71 69 65 63 60 57 53 50 48 47 43 42 40 39
120 122 121 124 126 124 120 118 112 113 110 112 109 98 81 83 76 70 77 77 76 73 74 73 71 73 75 73 69 62 61 57 56 54 49 47 45 45
122 123 123 126 129 130 132 131 125 123 122 114 113 100 98 89 84 80 75 73 86 78 73 74 67 72 74 72 70 69 66 64 62 58 55 50 48 46
119 122 125 125 127 127 128 131 131 131 136 133 129 126 116 99 85 85 85 80 85 72 66 79 71 75 72 71 70 69 69 69 65 62 60 54 50 47
116 121 126 129 128 130 129 130 131 128 130 131 135 134 120 99 89 84 83 90 85 73 69 82 71 77 71 66 66 67 67 65 64 59 58 54 49 47
110 117 122 128 131 133 135 139 139 140 128 133 135 138 138 132 110 88 89 93 94 86 71 73 73 72 71 60 59 58 57 59 57 55 52 51 47 45
110 115 120 127 133 134 135 138 144 149 132 129 139 135 138 136 130 107 95 96 83 80 70 73 69 59 64 65 62 61 58 52 52 52 50 48 44 45
111 113 114 123 129 135 138 141 150 136 131 132 131 137 127 129 129 119 107 97 88 82 69 64 66 67 69 59 59 56 55 58 50 51 49 46 45 42
114 115 120 127 132 137 139 144 147 141 137 137 137 136 137 128 126 121 110 101 93 93 76 67 75 71 66 63 62 48 59 54 53 53 52 48 47 44
110 122 131 136 140 140 144 147 149 141 142 143 144 144 139 127 121 118 112 107 97 94 83 75 72 65 66 67 63 58 57 58 53 51 53 53 52 49
113 119 126 132 138 139 141 146 146 147 144 145 145 141 132 131 124 117 114 104 101 94 83 76 74 68 66 65 64 66 57 57 53 53 52 56 54 45
121 117 117 117 123 127 132 140 142 144 148 145 144 141 139 136 125 117 117 107 106 100 91 78 70 64 64 59 62 63 59 60 47 50 53 55 55 43
109 108 110 111 115 123 126 132 138 144 144 144 146 140 139 140 131 116 113 110 107 95 90 80 72 68 66 63 63 61 57 62 50 50 47 46 46 41
99 100 103 104 110 119 118 122 131 137 138 139 144 144 137 139 128 123 116 114 110 101 94 81 76 74 76 82 66 62 58 56 50 49 44 46 46 40
92 91 93 93 94 94 96 106 115 125 135 139 143 140 140 137 136 131 118 118 117 103 91 80 78 82 84 75 69 65 58 52 49 49 44 33 26 22
88 87 79 82 81 76 82 97 108 115 127 133 143 139 141 141 127 114 117 112 107 105 98 93 83 69 65 58 63 60 51 45 48 46 38 34 36 36
86 79 77 78 74 70 69 80 96 103 114 133 131 138 136 143 134 119 115 102 101 102 95 83 71 66 66 73 68 58 44 35 29 26 31 35 43 46
85 82 80 73 66 63 60 68 79 93 101 116 129 130 130 143 140 125 114 107 102 94 86 79 73 69 68 65 61 56 46 40 34 29 27 23 21 18
Wind_Direction
270 269 268 268 268 268 268 269 264 259 256 254 256 252 253 252 252 249 246 242 236 235 237 238 245 240 235 234 229 230 231 230 236 233 232 235 231 241
269 268 267 267 267 266 265 264 266 257 263 255 255 255 254 254 252 249 249 248 239 237 236 235 234 241 240 233 235 236 236 239 240 237 239 242 242 241
267 266 266 266 264 264 264 264 262 263 258 261 261 254 255 253 254 252 251 249 248 239 236 235 235 236 240 239 239 242 238 243 244 244 248 250 251 261
266 265 264 265 263 263 262 261 264 264 258 262 260 258 252 251 253 254 252 251 250 248 240 236 234 233 235 243 244 241 240 244 249 252 261 263 262 269
267 265 263 263 262 262 261 260 261 263 265 260 261 258 253 251 252 253 252 251 254 252 246 239 239 239 240 242 243 238 240 242 250 255 256 257 268 272
266 265 263 261 261 261 261 260 260 260 260 261 256 257 255 248 250 251 251 252 253 254 254 253 249 247 245 244 242 244 242 242 247 254 256 260 264 270
266 264 263 261 260 260 259 259 259 257 257 256 256 253 252 252 248 250 251 253 254 253 254 255 254 253 255 252 252 246 245 245 249 254 257 260 260 267
266 265 264 262 260 259 258 257 256 255 254 253 253 253 250 252 250 248 250 253 254 252 254 256 254 256 256 255 254 251 249 246 250 250 255 256 260 262
268 265 264 262 261 259 258 257 256 254 252 252 252 252 253 250 247 250 246 250 254 256 252 257 257 257 258 260 258 255 250 250 251 253 255 254 258 260
270 268 264 262 260 259 258 257 255 254 252 250 249 250 251 257 247 248 248 252 255 258 252 259 257 260 261 262 259 257 254 248 250 249 254 253 254 255
273 271 267 263 261 259 257 255 254 253 253 252 250 250 250 251 254 249 250 252 253 254 251 258 259 261 262 262 262 253 249 247 245 246 245 250 252 254
278 274 268 266 262 259 256 254 253 250 252 252 250 250 249 249 248 247 246 249 254 254 253 251 255 259 268 268 264 261 256 248 248 250 248 250 250 259
280 276 272 268 264 260 256 253 251 252 252 251 251 248 249 246 245 248 243 246 250 254 254 244 254 257 265 272 264 257 254 258 253 254 249 247 249 251
281 279 275 270 266 261 257 253 251 251 249 248 247 246 245 243 243 243 245 244 248 251 253 245 256 254 254 263 267 261 258 258 255 254 253 254 255 256
287 281 276 271 266 262 257 253 250 248 245 244 244 243 242 245 242 242 244 245 247 250 250 249 252 250 255 258 259 261 259 258 255 252 253 256 258 262
293 287 279 273 267 262 257 251 248 245 243 242 241 242 243 243 240 239 239 241 243 245 249 248 248 251 253 256 256 259 260 256 252 254 253 262 264 261
296 292 284 277 269 263 256 250 245 242 240 239 239 239 239 238 241 235 238 238 240 242 245 247 247 250 254 255 257 256 255 260 252 250 257 261 265 263
302 294 285 280 272 264 255 248 242 239 237 236 236 237 236 234 238 233 232 233 236 240 239 240 240 245 254 260 263 254 256 257 258 255 257 252 257 260
306 299 292 283 277 266 254 246 241 236 235 233 234 234 234 232 236 231 230 230 234 237 238 237 237 242 245 252 260 263 256 258 252 256 254 258 251 253
307 299 294 290 286 272 252 244 239 236 233 232 232 231 230 229 233 232 230 229 229 232 236 238 239 240 244 249 257 264 263 251 245 249 259 260 249 250
313 308 298 296 296 286 258 245 240 236 232 230 230 229 227 225 229 226 226 227 226 230 235 238 239 246 250 251 254 264 264 260 253 242 235 235 245 253
319 313 307 303 296 291 276 250 239 234 232 229 229 227 225 222 225 225 225 225 226 231 238 242 240 243 247 247 249 251 253 256 249 239 251 255 244 249
324 324 322 315 304 295 285 260 241 237 233 229 227 225 224 222 225 225 225 225 228 233 234 238 240 242 247 246 240 241 237 235 231 236 269 269 254 250